Zurück zum Katalog

STARLINK-35394

AktivKommunikationVLEO
NORAD 66023·PAYLOAD·🇺🇸 United States

Gestartet Oct 16, 2025 von Cape Canaveral Space Force Station

Loading…

Nächste Überflüge (nächste 24 Stunden)

TLE

AktuellSource: CelesTrak SupGP

Epoche: Sep 14, 2026, 22:44 UTC

1 66023C 25232U   26257.94770833  .00044697  00000+0  13211-2 0  2570
2 66023  53.1570 303.4002 0001356  92.0170 205.8037 15.34356623    10

Verfolge STARLINK-35394 in Echtzeit mit AllMySat

Download on the App Store